Oelwein, IA

7:20 PM CDT on May 22, 2018 (GMT -0500)
Oelwein Municipal

Weather History for KOLZ - June, 2013

Change the Weather History Date:

Tuesday, June 18, 2013

  Actual Average Record
Temperature  
Mean Temperature 70 °F -  
Max Temperature 77 °F 79 °F 91 °F (1949)
Min Temperature 62 °F 57 °F 46 °F (1965)
Cooling Degree Days 4    
Growing Degree Days 20 (Base 50)    
Moisture  
Dew Point 56 °F    
Average Humidity 64    
Maximum Humidity 82    
Minimum Humidity 44    
Precipitation  
Precipitation 0.00 in - - ()
Sea Level Pressure  
Sea Level Pressure 30.03 in    
Wind  
Wind Speed 10 mph (ENE)    
Max Wind Speed 18 mph    
Max Gust Speed 21 mph    
Visibility 10 miles    
Events      
Averages and records for this station are not official NWS values.
T = Trace of Precipitation, MM = Missing Value Source: NWS Daily Summary

Daily Weather History Graph

Daily Weather History Graph

Search for Another Location

Airport or City:

Astronomy

Jun. 18, 2013 Rise Set
Actual Time 5:29 AM CDT 8:48 PM CDT
Civil Twilight 4:54 AM CDT 9:23 PM CDT
Nautical Twilight 4:08 AM CDT 10:09 PM CDT
Astronomical Twilight 3:12 AM CDT 11:05 PM CDT
Moon 3:28 PM CDT (6/18) 1:44 AM CDT (6/18)
Length of Visible Light 16h 29m
Length of Day
15h 19m
Waxing Gibbous, 71% of the Moon is Illuminated
Jun 18
Waxing Gibbous
Jun 23
Full
Jun 29
Last Quarter
Jul 8
New
Jul 15
First Quarter

Hourly Weather History & Observations

Time (CDT) Temp. Dew Point Humidity Pressure Visibility Wind Dir Wind Speed Gust Speed Precip Events Conditions
12:15 AM 69.8 °F 55.4 °F 60% 29.96 in 10.0 mi NNE 9.2 mph - N/A   Mostly Cloudy
12:35 AM 69.8 °F 55.4 °F 60% 29.95 in 10.0 mi NE 11.5 mph - N/A   Scattered Clouds
12:55 AM 68.0 °F 57.2 °F 68% 29.95 in 10.0 mi NE 11.5 mph - N/A   Clear
1:15 AM 68.0 °F 57.2 °F 68% 29.96 in 10.0 mi NE 9.2 mph - N/A   Partly Cloudy
1:35 AM 66.2 °F 57.2 °F 73% 29.96 in 10.0 mi NE 8.1 mph - N/A   Partly Cloudy
1:55 AM 66.2 °F 57.2 °F 73% 29.97 in 10.0 mi NE 6.9 mph - N/A   Clear
2:15 AM 66.2 °F 57.2 °F 73% 29.97 in 10.0 mi ENE 9.2 mph - N/A   Partly Cloudy
2:35 AM 66.2 °F 57.2 °F 73% 29.97 in 10.0 mi ENE 8.1 mph - N/A   Clear
2:55 AM 64.4 °F 57.2 °F 77% 29.96 in 10.0 mi ENE 6.9 mph - N/A   Clear
3:15 AM 64.4 °F 57.2 °F 77% 29.96 in 10.0 mi ENE 8.1 mph - N/A   Clear
3:35 AM 64.4 °F 57.2 °F 77% 29.96 in 10.0 mi ENE 8.1 mph - N/A   Clear
3:55 AM 64.4 °F 57.2 °F 77% 29.96 in 10.0 mi ENE 5.8 mph - N/A   Clear
4:15 AM 64.4 °F 57.2 °F 77% 29.97 in 10.0 mi ENE 6.9 mph - N/A   Clear
4:35 AM 62.6 °F 57.2 °F 82% 29.98 in 10.0 mi NE 6.9 mph - N/A   Mostly Cloudy
4:55 AM 62.6 °F 57.2 °F 82% 29.98 in 10.0 mi ENE 8.1 mph - N/A   Scattered Clouds
5:15 AM 62.6 °F 57.2 °F 82% 29.99 in 10.0 mi NE 6.9 mph - N/A   Clear
5:35 AM 62.6 °F 57.2 °F 82% 29.99 in 10.0 mi NE 10.4 mph - N/A   Clear
5:55 AM 62.6 °F 57.2 °F 82% 30.00 in 10.0 mi ENE 9.2 mph - N/A   Scattered Clouds
6:15 AM 62.6 °F 57.2 °F 82% 30.01 in 10.0 mi ENE 10.4 mph - N/A   Partly Cloudy
6:35 AM 62.6 °F 57.2 °F 82% 30.02 in 10.0 mi ENE 11.5 mph - N/A   Clear
6:55 AM 62.6 °F 57.2 °F 82% 30.03 in 10.0 mi ENE 12.7 mph - N/A   Clear
7:15 AM 64.4 °F 57.2 °F 77% 30.02 in 10.0 mi East 15.0 mph - N/A   Clear
7:35 AM 64.4 °F 57.2 °F 77% 30.03 in 10.0 mi East 15.0 mph - N/A   Clear
7:55 AM 62.6 °F 57.2 °F 82% 30.05 in 10.0 mi East 11.5 mph - N/A   Clear
8:15 AM 62.6 °F 55.4 °F 77% 30.05 in 10.0 mi East 11.5 mph - N/A   Mostly Cloudy
8:35 AM 64.4 °F 55.4 °F 73% 30.05 in 10.0 mi ENE 11.5 mph 19.6 mph N/A   Mostly Cloudy
8:55 AM 64.4 °F 53.6 °F 68% 30.06 in 10.0 mi East 13.8 mph - N/A   Mostly Cloudy
9:15 AM 64.4 °F 53.6 °F 68% 30.06 in 10.0 mi ENE 15.0 mph - N/A   Mostly Cloudy
9:35 AM 66.2 °F 53.6 °F 64% 30.06 in 10.0 mi ENE 15.0 mph - N/A   Partly Cloudy
9:55 AM 66.2 °F 53.6 °F 64% 30.06 in 10.0 mi ENE 12.7 mph 18.4 mph N/A   Partly Cloudy
10:15 AM 66.2 °F 53.6 °F 64% 30.08 in 10.0 mi NNE 18.4 mph - N/A   Scattered Clouds
10:35 AM 66.2 °F 53.6 °F 64% 30.08 in 10.0 mi NNE 15.0 mph 20.7 mph N/A   Partly Cloudy
10:55 AM 66.2 °F 55.4 °F 68% 30.07 in 10.0 mi NE 16.1 mph - N/A   Clear
11:15 AM 68.0 °F 55.4 °F 64% 30.07 in 10.0 mi NE 16.1 mph - N/A   Clear
11:35 AM 68.0 °F 55.4 °F 64% 30.07 in 10.0 mi ENE 12.7 mph 18.4 mph N/A   Clear
11:55 AM 69.8 °F 55.4 °F 60% 30.06 in 10.0 mi ENE 12.7 mph - N/A   Clear
12:15 PM 71.6 °F 55.4 °F 57% 30.06 in 10.0 mi ENE 12.7 mph - N/A   Clear
12:35 PM 71.6 °F 55.4 °F 57% 30.06 in 10.0 mi East 11.5 mph 17.3 mph N/A   Mostly Cloudy
12:55 PM 71.6 °F 55.4 °F 57% 30.06 in 10.0 mi East 12.7 mph - N/A   Mostly Cloudy
1:15 PM 71.6 °F 53.6 °F 53% 30.06 in 10.0 mi East 9.2 mph - N/A   Mostly Cloudy
1:35 PM 73.4 °F 53.6 °F 50% 30.06 in 10.0 mi East 9.2 mph - N/A   Mostly Cloudy
1:55 PM 75.2 °F 53.6 °F 47% 30.06 in 10.0 mi ENE 8.1 mph - N/A   Scattered Clouds
2:15 PM 73.4 °F 53.6 °F 50% 30.05 in 10.0 mi ESE 6.9 mph - N/A   Mostly Cloudy
2:35 PM 75.2 °F 55.4 °F 50% 30.05 in 10.0 mi NE 6.9 mph - N/A   Mostly Cloudy
2:55 PM 75.2 °F 55.4 °F 50% 30.05 in 10.0 mi NE 9.2 mph - N/A   Mostly Cloudy
3:15 PM 75.2 °F 55.4 °F 50% 30.05 in 10.0 mi NE 8.1 mph 13.8 mph N/A   Mostly Cloudy
3:35 PM 75.2 °F 55.4 °F 50% 30.05 in 10.0 mi NE 9.2 mph 16.1 mph N/A   Mostly Cloudy
3:55 PM 75.2 °F 55.4 °F 50% 30.04 in 10.0 mi NNE 11.5 mph - N/A   Mostly Cloudy
4:15 PM 75.2 °F 53.6 °F 47% 30.04 in 10.0 mi NNE 10.4 mph - N/A   Scattered Clouds
4:35 PM 77.0 °F 53.6 °F 44% 30.04 in 10.0 mi Variable 4.6 mph 15.0 mph N/A   Clear
4:55 PM 77.0 °F 53.6 °F 44% 30.04 in 10.0 mi NNE 8.1 mph - N/A   Clear
5:15 PM 75.2 °F 53.6 °F 47% 30.04 in 10.0 mi Calm Calm - N/A   Scattered Clouds
5:35 PM 75.2 °F 55.4 °F 50% 30.03 in 10.0 mi ESE 3.5 mph - N/A   Scattered Clouds
5:55 PM 77.0 °F 55.4 °F 47% 30.03 in 10.0 mi East 8.1 mph - N/A   Mostly Cloudy
6:15 PM 75.2 °F 55.4 °F 50% 30.03 in 10.0 mi East 6.9 mph - N/A   Mostly Cloudy
6:35 PM 75.2 °F 55.4 °F 50% 30.03 in 10.0 mi East 6.9 mph 13.8 mph N/A   Clear
6:55 PM 75.2 °F 55.4 °F 50% 30.03 in 10.0 mi East 5.8 mph - N/A   Clear
7:15 PM 75.2 °F 55.4 °F 50% 30.03 in 10.0 mi ENE 5.8 mph - N/A   Partly Cloudy
7:35 PM 75.2 °F 55.4 °F 50% 30.03 in 10.0 mi East 9.2 mph - N/A   Clear
7:55 PM 73.4 °F 55.4 °F 53% 30.03 in 10.0 mi East 6.9 mph - N/A   Clear
8:15 PM 73.4 °F 55.4 °F 53% 30.03 in 10.0 mi East 6.9 mph - N/A   Clear
8:35 PM 71.6 °F 57.2 °F 60% 30.03 in 10.0 mi East 8.1 mph - N/A   Clear
8:55 PM 71.6 °F 55.4 °F 57% 30.03 in 10.0 mi East 8.1 mph - N/A   Clear
9:15 PM 69.8 °F 55.4 °F 60% 30.04 in 10.0 mi East 6.9 mph - N/A   Clear
9:35 PM 69.8 °F 55.4 °F 60% 30.05 in 10.0 mi East 6.9 mph - N/A   Clear
9:55 PM 68.0 °F 55.4 °F 64% 30.05 in 10.0 mi East 8.1 mph - N/A   Clear
10:15 PM 68.0 °F 57.2 °F 68% 30.06 in 10.0 mi East 8.1 mph - N/A   Clear
10:35 PM 68.0 °F 55.4 °F 64% 30.06 in 10.0 mi ESE 9.2 mph - N/A   Clear
10:55 PM 68.0 °F 55.4 °F 64% 30.06 in 10.0 mi ESE 8.1 mph - N/A   Clear
11:15 PM 66.2 °F 55.4 °F 68% 30.06 in 10.0 mi ESE 8.1 mph - N/A   Clear
11:35 PM 66.2 °F 55.4 °F 68% 30.07 in 10.0 mi ESE 8.1 mph - N/A   Clear
11:55 PM 64.4 °F 55.4 °F 73% 30.06 in 10.0 mi ESE 8.1 mph - N/A   Clear